Regional Weather Roundup
Issued by NWS State College, PA

Home | Current Version | Previous Version | Graphics & Text | Print | Product List | Glossary On
Versions: 1 2 3 4 5 6 7 8 9 10 11 12 13 14 15 16 17 18 19 20 21 22 23 24 25 26 27 28 29 30 31 32 33 34 35 36 37 38 39 40 41 42 43 44 45 46 47 48 49 50
055
ASUS41 KCTP 181210
RWRCTP

REGIONAL WEATHER ROUNDUP
NATIONAL WEATHER SERVICE STATE COLLEGE PA
700 AM EST MON DEC 18 2017

Note: "fair" indicates few or no clouds below 12,000 feet with no
significant weather and/or obstructions to visibility.

* = STATION THAT DOES NOT REPORT PRECIPITATION /E.G. RAIN...SNOW...ETC/
    THUNDER OR FOG.

PAZ002>004-007>009-013>016-020>023-029>032-181300-
WESTERN PENNSYLVANIA

CITY           SKY/WX    TMP DP  RH WIND       PRES   REMARKS
ERIE           CLOUDY    37  32  82 S14       29.99F
MEADVILLE      CLOUDY    34  33  96 VRB5      30.01F
FRANKLIN*      CLOUDY    34  30  85 SW8       30.02F
NEW CASTLE     CLOUDY    36  32  85 SW5       30.05F
BEAVER COUNTY  CLOUDY    36  32  87 S6        30.04
BUTLER*        CLOUDY    36  32  85 S5        30.06S
PITTSBURGH INT CLOUDY    40  35  83 SW8       30.06R
PITTSBURGH     CLOUDY    36  31  82 S8        30.06S
INDIANA*       CLOUDY    34  32  93 SW5       30.10R
LATROBE        CLOUDY    37  36  93 SW12      30.09R
WASHINGTON CO* CLOUDY    38  34  85 SW5       30.10S
$$

PAZ004>006-010>012-017>019-024>028-033>037-041-042-045-046-049>053-181300-
CENTRAL PENNSYLVANIA

CITY           SKY/WX    TMP DP  RH WIND       PRES   REMARKS
BRADFORD       CLOUDY    33  33 100 VRB5      29.98F FOG
DUBOIS         CLOUDY    34  30  85 SW7       30.02S
CLEARFIELD     CLOUDY    32  32 100 S5        30.05S FOG
JOHNSTOWN      CLOUDY    35  31  85 SW7       30.02S
ALTOONA        CLEAR     35  31  85 CALM      30.06S
STATE COLLEGE  MOCLDY    30  28  93 CALM      30.06R FOG
WILLIAMSPORT   MOCLDY    34  28  79 CALM      30.09R
SELINSGROVE    CLOUDY    32  29  88 CALM      30.11R
FT INDIANTOWN  MOCLDY    32  32  97 CALM      30.11R
CAPITAL CITY   CLOUDY    35  27  72 CALM      30.12S
HARRISBURG     CLOUDY    34  29  82 NW5       30.11S
YORK           CLOUDY    29  28  96 CALM      30.10R FOG
$$

PAZ038>040-043-044-047-048-054-055-060>062-067>071-181300-
EASTERN PENNSYLVANIA

CITY           SKY/WX    TMP DP  RH WIND       PRES   REMARKS
SCRANTON       CLOUDY    34  30  85 CALM      30.07S
MOUNT POCONO   CLOUDY    32  32 100 S3        30.04S FOG
ALLENTOWN      CLOUDY    35  28  75 CALM      30.12S
QUAKERTOWN*    CLOUDY    34  32  93 NE3       30.11F
READING        MOCLDY    31  29  92 N5        30.11S
LANCASTER      MOCLDY    33  31  92 CALM      30.11R
COATESVILLE    MOSUNNY   34  32  93 CALM      30.11S
POTTSTOWN      CLOUDY    35  32  88 NE3       30.12F FOG
BLUE BELL      CLOUDY    34  32  93 CALM      30.12F
DOYLESTOWN     CLOUDY    34  30  85 NE5       30.10F
WILLOW GROVE   NOT AVBL
NORTH PHILA    CLOUDY    38  33  82 NE6       30.12F
PHILADELPHIA   MOCLDY    39  35  86 CALM      30.12F
$$




USA.gov is the U.S. government's official web portal to all federal, state and local government web resources and services.